This is the latest recevied weather packets stored in our database for station/object SP2ARQ-13. If no packets are shown the sender has not sent any weather packets the latest 10 day(s).
| Time | Temp. | Humidity | Pressure | Rain* | Wind** | Luminosity | Snow |
|---|---|---|---|---|---|---|---|
| 1777438675 | 1.67° C | 88% | 1028.1 hPa | - | - | - | - |
| 1777437775 | 1.11° C | 95% | 1027.9 hPa | - | - | - | - |
| 1777436875 | 0.56° C | 97% | 1027.8 hPa | - | - | - | - |
| 1777435074 | -0.56° C | 96% | 1027.6 hPa | - | - | - | - |
| 1777433274 | -0.56° C | 92% | 1027.4 hPa | - | - | - | - |
| 1777431474 | -0.56° C | 90% | 1027.2 hPa | - | - | - | - |
| 1777426073 | 0° C | 70% | 1027.1 hPa | - | - | - | - |
| 1777421572 | 1.11° C | 57% | 1027.1 hPa | - | - | - | - |
| 1777414371 | 2.78° C | 52% | 1026.7 hPa | - | - | - | - |
| 1777410770 | 3.89° C | 50% | 1026.4 hPa | - | - | - | - |
| 1777409870 | 4.44° C | 50% | 1026.1 hPa | - | - | - | - |
| 1777408970 | 5° C | 50% | 1026.1 hPa | - | - | - | - |
| 1777406434 | 6.11° C | 50% | 1025.6 hPa | - | - | - | - |
| 1777404469 | 6.11° C | 50% | 1025.3 hPa | - | - | - | - |
| 1777400868 | 7.78° C | 47% | 1024.8 hPa | - | - | - | - |
| 1777398168 | 9.44° C | 46% | 1024.1 hPa | - | - | - | - |
| 1777393667 | 11.67° C | 39% | 1023.4 hPa | - | - | - | - |
| 1777390066 | 18.33° C | 29% | 1023.2 hPa | - | - | - | - |
| 1777388266 | 18.33° C | 29% | 1023.4 hPa | - | - | - | - |
| 1777386466 | 16.11° C | 31% | 1023.9 hPa | - | - | - | - |
| 1777381065 | 14.44° C | 33% | 1024.8 hPa | - | - | - | - |
| 1777378364 | 20.56° C | 29% | 1024.9 hPa | - | - | - | - |
| 1777376564 | 17.78° C | 33% | 1025.2 hPa | - | - | - | - |
| 1777375664 | 15.56° C | 34% | 1025.3 hPa | - | - | - | - |
| 1777374763 | 17.78° C | 33% | 1025.4 hPa | - | - | - | - |
* Rain since midnight (hover to see other rain measurements)
** Current wind speed in m/s (hover to see current wind gust speed)